Find Local Weather

World > North America > United States > New Hampshire

Warren, New Hampshire Regional Weather

Lat: 43.92N, Lon: 71.89W
Wx Zone: NHZ003
Feedback

Warren, NH Regional Weather

Expires:201905231900;;339696
ASUS41 KBOX 231810
RWRBOX

REGIONAL WEATHER ROUNDUP
NATIONAL WEATHER SERVICE BOSTON/NORTON MA
200 PM EDT THU MAY 23 2019

NOTE:  "FAIR" INDICATES FEW OR NO CLOUDS BELOW 12,000 FEET WITH NO 
SIGNIFICANT WEATHER AND/OR OBSTRUCTIONS TO VISIBILITY.


MEZ002-015-021-024-NHZ003-005-008-011-012-014-VTZ005-008-231900-
NORTHERN NEW ENGLAND
  
CITY           SKY/WX    TMP DP  RH WIND       PRES   REMARKS
PORTLAND ME    PTSUNNY   63  48  58 S14       30.04F                  
6HR MIN TEMP:  55; 6HR MAX TEMP:  64;                                

BANGOR ME      PTSUNNY   67  42  40 S13G23    30.05F                  
CONCORD NH     FAIR      71  51  49 S12G18    29.99F                  
MANCHESTER NH  PTSUNNY   71  51  49 S20G26    29.99F                  
NASHUA NH      CLOUDY    69  55  60 VRB7      30.01F                  
PORTSMOUTH NH  PTSUNNY   69  51  52 SE10      29.99                   
JAFFREY NH     CLOUDY    67  52  58 S9        30.02F                  
KEENE NH       FAIR      70  55  59 S16       29.99F                  
BURLINGTON VT  CLOUDY    72  52  49 S12       29.91F                  
MT. WASHINGTON FOG       43  43 100 W29         N/A  VSB 1/16         
$$


SKY/WX - Weather  TMP - Temperature  DP - Dew Point  RH - Relative Humidity
WIND - Wind Direction/Speed PRES - Barometric Pressure VSB - Visibility
WCI - Wind Chill Index E13G22 Wind - East Wind 13 mph/Gusts of 22 mph